This demonstration page uses our WeatherBlox Daily Observations layout. Learn more.

Left ArrowRight Arrow

34.74481, -87.66753

Hourly Observations for December 24, 2018

Temp ( °F °C ) Dew Point ( °F °C ) Humidity (%) Winds ( mph kmh ) Pressure ( in mb ) Visibility ( mi km ) Precip ( " mm )
12:53 am 00:53 Clear with Mist and Fog 33 0.6 30 -1.1 89 89 Calm 30.37 1029 6 10 0.00 0.00
1:46 am 01:46 Clear with Mist and Fog 31 -0.6 30 -1.1 96 96 Calm 30.42 1030 2 3 0.00 0.00
1:53 am 01:53 Clear with Freezing Fog 31 -0.6 29 -1.7 92 92 Calm 30.38 1029 1 1 0.00 0.00
2:00 am 02:00 Mostly Cloudy with Mist and Fog 30 -1.1 29 -1.7 96 96 Calm 30.39 1029 1 1 0.00 0.00
2:02 am 02:02 Clear with Mist and Fog 30 -1.1 29 -1.7 96 96 Calm 30.39 1029 1 2 0.00 0.00
2:05 am 02:05 Clear with Mist and Fog 30 -1.1 29 -1.7 96 96 Calm 30.39 1029 4 6 0.00 0.00
2:21 am 02:21 Clear with Mist and Fog 31 -0.6 29 -1.7 92 92 Calm 30.42 1030 2 3 0.00 0.00
2:28 am 02:28 Clear with Mist and Fog 31 -0.6 28 -2.2 89 89 Calm 30.42 1030 2 3 0.00 0.00
2:42 am 02:42 Mostly Cloudy with Freezing Fog 31 -0.6 29 -1.7 92 92 Calm 30.42 1030 1 1 0.00 0.00
2:50 am 02:50 Mostly Cloudy with Freezing Fog 30 -1 28 -2 93 93 Calm 30.42 1030 0 0 0.00 0.00
2:53 am 02:53 Mostly Cloudy with Freezing Fog 30 -1.1 28 -2.2 92 92 Calm 30.38 1029 1 1 0.00 0.00
3:34 am 03:34 Mostly Cloudy with Mist and Fog 30 -1.1 28 -2.2 92 92 Calm 30.42 1030 2 3 0.00 0.00
3:42 am 03:42 Mostly Cloudy with Mist and Fog 30 -1.1 28 -2.2 92 92 Calm 30.42 1030 5 8 0.00 0.00
3:49 am 03:49 Mostly Cloudy with Mist and Fog 28 -2 27 -3 93 93 Calm 30.42 1030 2 3 0.00 0.00
3:53 am 03:53 Mostly Cloudy with Mist and Fog 29 -1.7 27 -2.8 92 92 Calm 30.38 1029 1 1 0.00 0.00
4:15 am 04:15 Mostly Cloudy with Freezing Fog 30 -1.1 27 -2.8 88 88 Calm 30.42 1030 0 0 0.00 0.00
4:53 am 04:53 Mostly Cloudy with Freezing Fog 29 -1.7 27 -2.8 92 92 Calm 30.40 1029 0 0 0.00 0.00
5:46 am 05:46 Mostly Cloudy with Freezing Fog 29 -1.7 28 -2.2 96 96 Calm 30.42 1030 0 0 0.00 0.00
5:53 am 05:53 Mostly Cloudy with Freezing Fog 29 -1.7 28 -2.2 96 96 Calm 30.40 1030 0 0 0.00 0.00
6:13 am 06:13 Mostly Cloudy with Freezing Fog 29 -1.7 27 -2.8 92 92 Calm 30.42 1030 0 0 0.00 0.00
6:53 am 06:53 Mostly Cloudy with Freezing Fog 28 -2.2 27 -2.8 96 96 Calm 30.41 1030 0 0 0.00 0.00
7:19 am 07:19 Mostly Cloudy with Freezing Fog 29 -1.7 27 -2.8 92 92 Calm 30.42 1030 5 8 0.00 0.00
7:53 am 07:53 Mostly Cloudy with Freezing Fog 30 -1.1 29 -1.7 96 96 Calm 30.42 1030 5 8 0.00 0.00
8:53 am 08:53 Mostly Cloudy with Freezing Fog 31 -0.6 30 -1.1 96 96 Calm 30.42 1030 0 0 0.00 0.00
9:53 am 09:53 Mostly Cloudy with Fog 33 0.6 33 0.6 100 100 SE 5 7 30.43 1030 1 1 0.00 0.00
10:08 am 10:08 Cloudy with Mist and Fog 35 1.7 34 1.1 96 96 ESE 5 7 30.45 1031 2 3 0.00 0.00
10:15 am 10:15 Cloudy with Mist and Fog 36 2.2 34 1.1 93 93 E 5 7 30.45 1031 3 4 0.00 0.00
10:23 am 10:23 Cloudy with Mist and Fog 36 2.2 35 1.7 97 97 E 5 7 30.45 1031 4 6 0.00 0.00
10:47 am 10:47 Partly Cloudy 37 3 34 1 87 87 E 6 9 30.42 1030 7 11 0.00 0.00
10:53 am 10:53 Mostly Sunny 38 3.3 35 1.7 89 89 ENE 3 6 30.40 1029 8 13 0.00 0.00
11:53 am 11:53 Sunny 45 7.2 33 0.6 63 63 E 5 7 30.37 1028 10 16 0.00 0.00
12:53 pm 12:53 Sunny 48 8.9 29 -1.7 48 48 E 8 13 30.34 1028 10 16 0.00 0.00
1:53 pm 13:53 Sunny 49 9.4 27 -2.8 43 43 E 10 17 30.32 1027 10 16 0.00 0.00
2:53 pm 14:53 Sunny 49 9.4 24 -4.4 38 38 E 7 11 30.30 1026 10 16 0.00 0.00
3:53 pm 15:53 Sunny 47 8.3 26 -3.3 44 44 ESE 7 11 30.28 1026 10 16 0.00 0.00
4:53 pm 16:53 Clear 47 8.3 27 -2.8 46 46 NE 3 6 30.30 1026 10 16 0.00 0.00
5:53 pm 17:53 Clear 41 5 28 -2.2 60 60 ENE 3 6 30.29 1026 10 16 0.00 0.00
6:53 pm 18:53 Clear 39 3.9 30 -1.1 70 70 ENE 6 9 30.28 1026 10 16 0.00 0.00
7:53 pm 19:53 Clear 38 3.3 32 0 79 79 E 5 7 30.28 1025 10 16 0.00 0.00
8:53 pm 20:53 Clear 37 2.8 31 -0.6 79 79 E 6 9 30.25 1025 10 16 0.00 0.00
9:53 pm 21:53 Clear 36 2.2 30 -1.1 79 79 Calm 30.26 1025 10 16 0.00 0.00
10:53 pm 22:53 Clear 35 1.7 29 -1.7 78 78 Calm 30.26 1025 10 16 0.00 0.00
11:53 pm 23:53 Clear 35 1.7 32 0 89 89 Calm 30.24 1024 10 16 0.00 0.00

Powered by AerisWeather